Вернуться в каталог

OPS 4682 DEB

АктивенPO
NORAD 38410·DEBRIS·🇺🇸 United States

Запущен Apr 3, 1965 с Vandenberg Space Force Base

Loading…

Ближайшие Пролёты (ближайшие 24 часа)

TLE

СвежийSource: Space-Track

Эпоха: Sep 14, 2026, 13:33 UTC

1 38410U 65027DP  26257.56483243  .00000120  00000-0  38685-3 0  9999
2 38410  90.2517  12.8191 0032288 226.9677 132.8739 12.97596561642596

Отслеживайте OPS 4682 DEB в реальном времени с AllMySat

Download on the App Store